Location: Kunchanapalle
(16.4623°N, 80.6176°E)
Time: 13:59:47
(UTC+00:00)

NOSS 3-2 (C) - Pass Details

Date: 13 August 2020
Orbit: 793 x 1419 km, 63.4° (Epoch: 21 September)

Event Time Altitude Azimuth Distance (km) Brightness Sun altitude
Rises 14:07:09 0° 196° (SSW) 3,288 6.2 -15.4°
Reaches altitude 10° 14:09:34 10° 193° (SSW) 2,349 5.4 -15.9°
Maximum altitude 14:14:48 61° 113° (ESE) 905 3.0 -17.1°
Drops below altitude 10° 14:20:19 10° 33° (NNE) 2,474 5.5 -18.3°
Sets 14:22:55 0° 30° (NNE) 3,477 6.3 -18.9°
